PROMETHEUS 2-6 (44386 NORAD) Tracking and Keplerian Element Data

This shows tracking and keplerian element data for the satellite.

Feedback or suggestion? Click here.




ElementValue
Catalog44386
NamePROMETHEUS 2-6
Epoch Orbit254
Epoch Day201.91702643
Epoch Year2019
RAAN34.1584
Inclination28.5316
Eccentricity0.0388348
Argument of Perigee16.3107
Mean Anonmoly344.9599
Mean Motion14.97756952
Decay Rate0.00011367
L11 44386U 19036AB 19201.91702643 .00011367 00000-0 17292-3 0 9991
L22 44386 28.5316 34.1584 0388348 16.3107 344.9599 14.97756952 2548

Live tracking and technical data element details for PROMETHEUS 2-6 (NORAD 44386). PROMETHEUS 2-6 can be tracked NOW for your location showing map with azimuth and elevation plus other details from your city location.

Track the satellite on the map from your city or location and see movement details for azimuth, elevation, latitude, longitude, range, height, and movement on the map or in text.







IsCatalogInMostPopularTable: catalog: 44386, numindb: 3
Update: records affected: 1



GetName: 44386 PROMETHEUS 2-6

Hit Count: updated at: Sun, 21 Jul 2019 21:01:05 GMT